This is the latest recevied weather packets stored in our database for station/object TG5ALY-16. If no packets are shown the sender has not sent any weather packets the latest 10 day(s).
| Time | Temp. | Humidity | Pressure | Rain* | Wind** | Luminosity | Snow |
|---|---|---|---|---|---|---|---|
| 1777751797 | 23.89° C | 38% | 1012 hPa | 0 mm | - | - | - |
| 1777751196 | 23.89° C | 38% | 1012 hPa | 0 mm | - | - | - |
| 1777750595 | 24.44° C | 36% | 1012 hPa | 0 mm | - | - | - |
| 1777749995 | 24.44° C | 36% | 1013 hPa | 0 mm | - | - | - |
| 1777749394 | 24.44° C | 35% | 1013 hPa | 0 mm | - | - | - |
| 1777748793 | 24.44° C | 35% | 1013 hPa | 0 mm | - | - | - |
| 1777748193 | 25° C | 35% | 1013 hPa | 0 mm | - | - | - |
| 1777747592 | 25° C | 35% | 1013 hPa | 0 mm | - | - | - |
| 1777746991 | 24.44° C | 35% | 1013 hPa | 0 mm | - | - | - |
| 1777746391 | 24.44° C | 34% | 1014 hPa | 0 mm | - | - | - |
| 1777745790 | 24.44° C | 33% | 1014 hPa | 0 mm | - | - | - |
| 1777745189 | 24.44° C | 33% | 1014 hPa | 0 mm | - | - | - |
| 1777744589 | 23.89° C | 35% | 1014 hPa | 0 mm | - | - | - |
| 1777743988 | 23.89° C | 36% | 1014 hPa | 0 mm | - | - | - |
| 1777743388 | 22.78° C | 42% | 1014 hPa | 0 mm | - | - | - |
| 1777742787 | 22.22° C | 42% | 1015 hPa | 0 mm | - | - | - |
| 1777742186 | 21.67° C | 41% | 1015 hPa | 0 mm | - | - | - |
| 1777741586 | 21.67° C | 41% | 1015 hPa | 0 mm | - | - | - |
| 1777740985 | 21.67° C | 43% | 1015 hPa | 0 mm | - | - | - |
| 1777740384 | 21.67° C | 44% | 1015 hPa | 0 mm | - | - | - |
| 1777739783 | 21.11° C | 45% | 1015 hPa | 0 mm | - | - | - |
| 1777739183 | 21.11° C | 45% | 1016 hPa | 0 mm | - | - | - |
| 1777738582 | 20.56° C | 44% | 1016 hPa | 0 mm | - | - | - |
| 1777737981 | 20.56° C | 44% | 1016 hPa | 0 mm | - | - | - |
| 1777737381 | 20.56° C | 48% | 1016 hPa | 0 mm | - | - | - |
* Rain latest hour (hover to see other rain measurements)
** Current wind speed in m/s (hover to see current wind gust speed)